Wind_Speed
12 12 12 12 12 12 13 13 12 12 11 10 9 10 9 8 8 9 10 8 11 14 7 3 4 5 7 5 12 12 1 3 5 6 7 17 4 3 2 7 9 12 11 3 10
12 12 11 12 13 13 12 13 11 11 10 9 8 8 5 6 7 7 7 9 12 7 3 4 4 5 4 6 5 6 5 6 5 7 4 12 14 11 3 4 8 15 7 8 9
13 13 13 13 11 13 12 11 10 9 8 8 6 4 2 3 3 2 4 5 6 2 5 8 7 6 7 9 11 4 5 6 14 20 17 11 11 15 6 3 6 10 9 5 13
13 13 13 13 12 12 12 11 10 8 7 5 3 1 1 0 3 3 4 5 5 1 2 3 5 2 3 5 9 4 11 12 13 25 13 7 17 12 13 11 17 16 15 12 10
14 14 13 12 12 12 11 11 11 9 8 6 2 3 4 4 1 4 6 6 3 2 4 1 3 1 2 5 8 6 5 16 20 22 24 19 13 11 22 24 24 23 22 13 11
14 13 11 11 11 12 12 12 10 9 7 5 1 6 5 3 1 5 4 2 1 2 3 4 5 4 5 5 3 5 11 12 13 18 16 9 14 12 17 20 20 26 30 25 19
14 13 10 10 11 11 12 11 9 7 6 4 3 7 4 4 2 5 2 1 1 2 2 3 6 4 7 4 10 8 7 8 10 20 7 7 8 9 29 27 29 34 32 27 29
14 12 10 10 11 11 12 9 7 6 4 3 7 5 1 1 3 2 2 1 1 2 5 4 6 6 3 7 8 3 2 4 5 6 8 12 9 7 14 17 19 26 32 32 29
14 11 10 10 10 10 10 7 4 5 5 6 5 2 1 2 2 2 3 4 1 1 2 1 2 1 1 1 4 3 3 4 6 5 3 6 7 6 12 17 22 14 17 29 28
14 11 11 10 9 8 7 3 1 1 2 3 4 2 2 2 1 2 3 5 4 2 1 3 2 2 3 3 3 1 4 4 5 5 7 8 8 9 21 23 25 32 29 19 19
11 11 11 10 9 7 4 2 2 2 3 2 2 1 4 3 2 3 5 4 5 3 2 4 3 5 8 8 5 5 6 8 6 9 7 7 6 10 19 17 19 29 28 22 24
11 11 11 10 8 6 3 1 1 3 2 3 5 3 5 4 3 5 5 3 5 4 2 2 5 10 6 3 5 2 4 7 8 6 8 9 16 17 18 17 26 24 18 17 17
11 11 10 9 6 4 4 3 1 1 1 0 2 1 1 3 2 8 4 3 4 3 6 6 7 4 3 2 4 3 4 5 8 5 5 6 8 5 4 11 26 26 20 25 24
11 11 9 6 2 5 3 4 1 2 4 1 1 1 1 1 0 2 5 2 3 5 3 5 4 4 2 2 4 4 2 2 4 6 2 6 5 5 6 9 15 23 28 33 42
9 9 6 3 1 2 3 1 1 2 3 5 2 1 2 2 1 1 2 4 3 2 4 6 5 3 3 4 4 5 1 2 3 4 4 4 3 7 4 6 8 13 25 31 35
9 6 4 1 1 2 2 3 3 6 5 2 5 6 2 1 1 1 1 3 3 3 3 7 2 4 6 1 2 2 3 4 0 2 3 7 5 5 1 10 8 14 25 28 34
9 3 3 3 1 1 5 3 5 5 5 5 3 4 4 3 3 3 1 4 1 3 4 5 4 1 3 1 1 2 5 3 5 2 5 6 3 7 10 10 15 14 24 29 33
7 2 2 4 2 3 5 4 5 4 4 2 1 3 2 5 2 4 2 3 5 4 1 1 5 2 3 2 4 4 6 5 5 2 4 7 4 2 15 22 24 25 22 26 35
4 2 2 6 2 4 1 4 7 6 4 1 2 4 4 3 3 4 3 3 1 4 2 2 4 4 1 1 4 2 3 5 4 1 3 4 3 8 12 13 19 22 25 25 34
1 3 1 4 3 5 4 4 3 2 1 2 4 3 3 3 1 2 3 2 3 2 3 2 3 4 3 1 3 3 1 2 2 1 3 4 5 5 8 10 12 19 19 24 30
3 2 2 3 5 2 3 4 2 3 0 0 1 1 2 2 2 3 1 2 3 3 5 2 3 5 3 2 3 4 3 2 1 3 5 2 3 6 11 9 11 14 15 23 27
5 1 2 7 4 4 2 3 1 4 1 0 1 3 3 1 1 2 3 2 4 2 2 3 2 4 6 7 2 3 2 3 2 4 2 2 5 10 11 11 21 17 11 19 23
5 2 1 5 3 0 2 2 1 2 2 1 1 3 3 3 1 1 2 4 5 3 2 2 2 3 8 5 5 5 3 3 1 3 5 3 5 9 6 11 19 13 9 20 27
4 2 3 4 4 6 4 2 3 2 2 1 1 4 4 3 1 2 1 2 2 4 3 1 2 6 5 3 2 4 6 7 5 2 2 9 9 19 21 22 23 6 11 14 23
3 1 3 2 2 3 3 5 4 3 1 1 1 3 4 2 3 1 2 4 4 6 4 5 4 4 6 6 6 13 14 10 9 6 7 19 9 17 8 13 26 30 25 29 28
5 5 4 4 6 6 2 4 5 3 4 3 4 3 4 6 7 6 5 3 5 2 5 3 5 3 5 7 10 15 17 16 15 11 11 17 25 7 18 21 24 30 32 27 26
7 8 5 6 2 4 3 5 5 7 5 6 4 3 4 4 7 8 11 15 11 7 6 4 4 2 8 6 5 11 17 21 15 7 10 13 20 3 7 13 21 31 31 23 21
Wind_Direction
340 334 330 331 327 324 323 317 314 313 311 312 307 307 311 292 288 304 315 300 289 305 289 199 161 156 183 235 213 211 218 229 229 242 264 306 219 226 212 213 247 259 293 228 180
336 333 329 330 327 327 324 322 319 315 315 315 321 320 316 303 307 312 295 297 298 294 181 161 134 165 212 223 234 178 195 226 253 261 317 334 340 333 314 310 236 253 249 243 188
337 334 334 332 326 326 325 321 317 314 321 324 332 331 299 311 36 42 346 342 330 264 197 178 213 216 222 239 224 235 237 272 279 291 307 305 315 328 335 301 262 285 317 271 235
338 336 330 332 331 331 331 325 319 320 321 330 334 2 191 347 127 22 338 339 335 276 154 202 191 191 226 220 218 284 269 252 275 290 309 308 306 305 292 276 297 296 305 295 240
335 335 333 335 331 330 330 329 324 321 329 335 341 144 155 108 170 283 315 315 305 196 126 352 277 228 264 292 347 226 248 263 274 280 293 301 287 278 281 283 268 270 282 293 234
336 332 330 333 332 329 329 329 323 322 331 341 118 154 150 97 213 308 319 322 335 205 193 185 335 290 289 297 303 290 320 306 298 284 284 279 282 285 270 270 270 271 271 272 264
336 330 333 331 329 326 324 326 323 328 339 352 139 149 147 147 270 332 294 5 343 220 167 219 244 270 346 296 342 328 316 301 251 255 246 218 288 234 262 270 265 262 262 265 263
331 330 332 332 328 322 321 320 329 359 6 59 126 133 119 130 287 271 231 66 292 239 220 252 244 256 265 319 331 270 236 303 296 342 241 165 262 256 262 295 295 269 256 253 255
333 332 330 328 329 322 320 316 357 52 76 103 94 96 166 120 168 276 201 128 341 285 224 35 129 190 330 22 330 264 241 228 297 270 299 161 250 272 301 303 308 300 274 257 258
336 335 332 331 330 328 327 341 14 50 97 86 95 315 180 165 334 125 131 157 107 90 114 174 142 74 14 94 253 315 303 316 288 312 341 293 275 292 293 289 284 285 287 265 259
338 336 332 332 329 334 320 291 290 221 172 226 163 201 149 235 169 147 144 123 132 194 201 208 81 214 225 215 233 311 307 294 288 290 311 281 262 274 286 277 267 272 275 282 264
341 338 335 332 328 340 328 312 225 252 317 252 239 250 264 228 160 201 180 172 176 208 226 40 243 236 232 254 199 278 314 291 298 294 331 292 292 280 274 273 269 259 279 302 311
343 339 338 333 334 345 34 39 359 211 228 232 178 69 245 184 291 175 198 194 214 230 244 185 223 116 221 251 314 272 229 254 258 317 295 313 302 323 302 355 62 63 66 52 42
345 343 342 338 350 357 24 11 60 155 75 258 150 280 327 308 338 180 196 213 253 229 225 229 224 198 205 249 210 281 255 2 331 9 266 69 289 311 300 61 62 61 58 52 44
343 341 343 1 359 6 344 53 127 89 10 314 29 64 308 232 136 240 210 186 245 298 81 247 168 167 202 218 206 206 37 302 278 286 357 300 96 276 110 65 68 62 55 48 42
342 345 2 315 54 22 115 131 126 47 256 322 12 358 343 231 171 168 218 230 284 325 242 242 188 190 203 294 321 52 11 322 257 116 356 243 159 283 36 133 104 70 47 47 34
342 3 41 33 359 109 145 135 42 128 338 306 345 354 339 345 333 1 89 27 81 66 351 309 233 111 107 267 346 104 61 348 359 9 225 294 116 234 114 102 84 72 51 42 33
336 159 79 35 62 146 153 58 99 228 222 287 20 325 80 10 334 342 335 117 16 31 271 148 325 154 175 156 157 185 152 155 224 225 276 323 256 37 111 92 76 63 47 45 31
337 194 106 12 144 160 164 64 204 194 195 101 45 83 325 15 24 354 71 112 56 34 178 36 263 338 222 84 119 278 155 178 123 80 66 224 277 93 92 72 58 48 39 36 21
36 156 112 356 160 162 82 179 164 117 225 199 160 146 177 286 351 39 170 283 141 46 111 25 307 293 5 192 293 162 274 81 355 182 243 263 231 169 95 61 36 28 30 25 10
141 130 342 139 143 113 140 205 179 110 62 47 198 96 139 167 318 299 199 6 46 7 352 47 145 291 358 72 40 1 9 20 192 173 192 215 221 106 99 70 37 21 44 14 5
152 65 33 173 58 68 106 160 45 141 125 269 337 125 138 91 334 298 15 73 89 50 101 347 205 251 249 278 33 67 80 84 171 273 282 211 252 150 99 47 19 14 34 2 2
143 163 26 185 129 1 304 120 76 135 159 106 154 99 114 164 32 262 11 107 64 75 135 327 300 350 333 21 13 52 59 116 166 165 229 158 245 180 351 1 357 347 345 351 352
156 80 56 92 85 129 135 213 153 111 96 118 103 101 92 38 42 252 299 112 151 117 139 38 251 182 205 140 117 276 282 289 149 154 224 241 297 299 317 328 335 335 324 335 340
146 209 152 182 336 98 110 155 152 146 112 114 13 156 150 159 1 288 311 323 238 231 190 161 216 210 250 265 279 274 268 252 223 202 206 269 264 271 278 289 303 314 313 321 333
162 150 125 116 133 120 112 211 155 161 143 215 152 141 136 175 180 207 172 208 231 300 172 187 247 241 279 241 250 261 256 253 251 231 240 259 265 267 265 278 290 296 301 304 321
162 153 148 161 141 102 206 187 190 151 228 217 174 132 257 228 234 256 257 247 234 191 210 197 167 94 256 227 271 279 238 238 241 216 204 242 254 288 268 271 270 287 292 285 308
Height
1517 1515 1513 1512 1510 1509 1507 1505 1503 1502 1501 1500 1499 1498 1498 1499 1500 1501 1502 1503 1502 1501 1500 1501 1501 1502 1505 1505 1505 1507 1513 1513 1509 1507 1502 1494 1494 1491 1491 1492 1493 1494 1495 1496 1496
1516 1514 1512 1510 1509 1508 1505 1503 1501 1500 1498 1498 1496 1497 1496 1498 1498 1499 1501 1501 1501 1500 1501 1501 1500 1503 1504 1504 1503 1503 1509 1505 1500 1498 1500 1499 1497 1494 1492 1491 1491 1493 1493 1493 1494
1514 1512 1511 1509 1507 1506 1504 1502 1500 1499 1497 1496 1495 1495 1496 1497 1497 1499 1500 1499 1501 1500 1501 1501 1500 1501 1504 1502 1501 1500 1502 1499 1497 1497 1499 1498 1496 1494 1492 1491 1491 1493 1493 1494 1495
1513 1511 1509 1508 1506 1505 1503 1501 1499 1498 1496 1494 1494 1494 1495 1496 1502 1499 1500 1498 1500 1501 1501 1502 1501 1502 1502 1501 1497 1501 1498 1498 1497 1494 1495 1496 1492 1490 1490 1490 1490 1490 1491 1491 1491
1510 1510 1507 1506 1505 1504 1502 1499 1498 1496 1494 1493 1493 1493 1495 1497 1498 1498 1497 1498 1498 1500 1500 1503 1503 1502 1502 1499 1496 1496 1494 1494 1494 1492 1490 1491 1490 1489 1484 1486 1486 1486 1487 1490 1489
1509 1508 1506 1505 1504 1503 1501 1499 1497 1494 1494 1491 1492 1493 1495 1497 1497 1497 1496 1496 1497 1500 1500 1501 1504 1503 1502 1500 1499 1495 1494 1493 1492 1488 1489 1490 1485 1487 1481 1483 1483 1483 1482 1484 1486
1508 1507 1505 1505 1503 1501 1500 1498 1496 1494 1492 1492 1492 1493 1494 1496 1495 1497 1496 1496 1497 1499 1500 1501 1502 1504 1503 1501 1499 1497 1497 1493 1487 1482 1485 1483 1485 1482 1476 1479 1480 1478 1478 1479 1479
1506 1505 1504 1502 1501 1500 1498 1496 1495 1494 1492 1491 1492 1494 1494 1493 1494 1495 1496 1495 1497 1499 1500 1500 1501 1503 1504 1502 1499 1497 1496 1495 1481 1479 1479 1482 1486 1475 1475 1477 1474 1471 1471 1473 1474
1504 1503 1502 1501 1499 1498 1497 1495 1493 1494 1495 1493 1493 1494 1496 1493 1493 1494 1495 1494 1496 1499 1499 1500 1501 1502 1503 1504 1506 1499 1502 1495 1487 1478 1477 1480 1481 1471 1472 1473 1471 1468 1467 1469 1469
1502 1502 1501 1499 1498 1496 1496 1494 1493 1494 1494 1494 1494 1498 1496 1493 1492 1492 1494 1495 1495 1498 1500 1500 1500 1503 1505 1508 1510 1499 1499 1494 1494 1483 1482 1483 1482 1472 1470 1470 1467 1464 1464 1465 1466
1499 1500 1499 1498 1496 1495 1495 1494 1497 1496 1493 1492 1494 1494 1495 1493 1492 1492 1493 1495 1496 1498 1499 1499 1503 1508 1502 1501 1498 1499 1499 1498 1491 1485 1485 1480 1479 1472 1465 1464 1462 1459 1459 1462 1462
1498 1499 1497 1495 1495 1493 1493 1492 1494 1496 1494 1492 1492 1492 1493 1493 1492 1492 1493 1495 1496 1498 1497 1502 1503 1493 1494 1493 1494 1495 1499 1499 1490 1483 1485 1479 1472 1466 1459 1458 1456 1453 1459 1459 1459
1498 1497 1496 1494 1493 1494 1493 1492 1493 1494 1494 1493 1492 1493 1493 1493 1491 1492 1493 1493 1494 1495 1495 1500 1492 1488 1490 1491 1493 1493 1496 1496 1494 1487 1483 1480 1477 1464 1456 1460 1454 1456 1460 1460 1459
1497 1496 1495 1493 1495 1493 1493 1493 1493 1494 1501 1495 1493 1494 1494 1494 1492 1491 1492 1494 1492 1492 1490 1491 1487 1488 1489 1490 1491 1497 1488 1488 1489 1494 1502 1487 1508 1476 1461 1467 1463 1464 1462 1462 1459
1494 1494 1492 1491 1492 1491 1494 1492 1493 1495 1531 1497 1494 1494 1493 1495 1495 1492 1492 1492 1492 1491 1492 1489 1486 1486 1488 1488 1485 1489 1485 1487 1488 1494 1498 1489 1509 1476 1466 1471 1470 1469 1466 1465 1465
1493 1492 1492 1492 1492 1492 1490 1492 1493 1513 1526 1501 1496 1496 1494 1493 1493 1492 1492 1493 1492 1491 1490 1489 1485 1485 1485 1485 1485 1485 1486 1487 1488 1496 1534 1490 1492 1479 1465 1469 1472 1472 1471 1470 1469
1491 1490 1490 1491 1491 1491 1490 1492 1512 1527 1504 1509 1503 1499 1498 1497 1493 1492 1493 1497 1498 1504 1499 1489 1482 1482 1482 1485 1484 1486 1498 1539 1530 1532 1520 1484 1488 1473 1470 1472 1474 1475 1475 1474 1472
1489 1490 1490 1490 1491 1490 1490 1495 1521 1524 1519 1503 1501 1499 1501 1500 1495 1495 1494 1502 1501 1500 1503 1503 1498 1483 1483 1483 1487 1489 1497 1527 1522 1523 1504 1482 1489 1469 1472 1474 1476 1477 1478 1476 1473
1487 1488 1488 1489 1489 1489 1493 1520 1512 1508 1504 1503 1502 1508 1509 1501 1503 1499 1500 1504 1504 1503 1505 1508 1493 1485 1482 1483 1485 1487 1497 1487 1515 1526 1522 1491 1474 1474 1475 1478 1478 1477 1476 1476 1476
1485 1487 1487 1490 1488 1488 1494 1501 1506 1500 1501 1500 1505 1511 1522 1516 1504 1499 1499 1502 1504 1503 1503 1504 1511 1489 1485 1484 1483 1485 1487 1501 1512 1525 1530 1491 1474 1475 1480 1483 1481 1478 1478 1478 1479
1486 1487 1488 1488 1489 1488 1504 1509 1501 1501 1502 1503 1507 1512 1508 1516 1508 1508 1502 1504 1503 1504 1503 1504 1506 1498 1489 1487 1490 1496 1501 1499 1496 1498 1510 1510 1485 1477 1482 1483 1482 1481 1480 1480 1479
1483 1487 1485 1487 1492 1495 1505 1500 1499 1500 1501 1501 1502 1503 1508 1512 1514 1507 1505 1502 1503 1504 1509 1508 1510 1516 1500 1489 1490 1490 1495 1498 1501 1505 1506 1502 1487 1476 1477 1480 1478 1480 1481 1481 1479
1483 1484 1485 1486 1497 1503 1498 1498 1499 1499 1500 1501 1501 1501 1505 1512 1519 1512 1505 1506 1505 1507 1512 1511 1521 1538 1509 1499 1497 1499 1497 1503 1510 1510 1510 1513 1481 1470 1469 1475 1480 1480 1479 1476 1475
1484 1487 1486 1486 1487 1491 1500 1499 1500 1499 1499 1500 1501 1501 1506 1511 1509 1514 1506 1507 1507 1508 1509 1510 1515 1521 1515 1504 1508 1504 1500 1502 1514 1539 1526 1496 1493 1475 1466 1468 1471 1476 1476 1475 1474
1481 1484 1484 1493 1490 1490 1492 1496 1497 1502 1500 1500 1501 1501 1506 1517 1515 1517 1512 1509 1507 1506 1508 1510 1523 1518 1511 1507 1506 1501 1498 1499 1504 1516 1512 1478 1497 1475 1482 1477 1468 1467 1468 1466 1464
1480 1480 1484 1486 1486 1489 1492 1497 1496 1497 1499 1499 1503 1499 1503 1510 1509 1518 1512 1512 1508 1506 1507 1507 1516 1508 1517 1504 1501 1498 1490 1490 1490 1492 1493 1484 1475 1473 1473 1471 1469 1467 1464 1462 1461
1476 1478 1479 1487 1487 1490 1493 1493 1492 1493 1496 1496 1497 1500 1499 1500 1500 1501 1501 1502 1501 1504 1507 1508 1513 1526 1508 1499 1503 1507 1483 1479 1479 1484 1483 1482 1463 1468 1470 1467 1464 1462 1460 1458 1458